Truckee-Tahoe, CA

4:12 AM PDT on June 28, 2017 (GMT -0700)
Truckee-Tahoe

Weather History for KTRK - December, 2012

Change the Weather History Date:

Saturday, December 1, 2012

  Actual Average Record
Temperature  
Mean Temperature 42 °F -  
Max Temperature 48 °F 42 °F 62 °F (2008)
Min Temperature 37 °F 19 °F 5 °F (1954)
Degree Days  
Heating Degree Days 22    
Moisture  
Dew Point 34 °F    
Average Humidity 77    
Maximum Humidity 87    
Minimum Humidity 61    
Precipitation  
Precipitation 0.15 in - - ()
Sea Level Pressure  
Sea Level Pressure 29.97 in    
Wind  
Wind Speed 18 mph (SSW)    
Max Wind Speed 32 mph    
Max Gust Speed 47 mph    
Visibility 8 miles    
Events Rain    
Averages and records for this station are not official NWS values.
T = Trace of Precipitation, MM = Missing Value Source: NWS Daily Summary

Daily Weather History Graph

Daily Weather History Graph

Search for Another Location

Airport or City:

Trip Planner

Search our weather history database for the weather conditions in past years. The results will help you decide how hot, cold, wet, or windy it might be!

Date:

Astronomy

Dec. 01, 2012 Rise Set
Actual Time 7:01 AM PST 4:37 PM PST
Civil Twilight 6:32 AM PST 5:07 PM PST
Nautical Twilight 5:58 AM PST 5:40 PM PST
Astronomical Twilight 5:26 AM PST 6:12 PM PST
Moon 7:32 PM PST (12/1) 9:18 AM PST (12/1)
Length of Visible Light 10h 35m
Length of Day
9h 35m
Waning Gibbous, 91% of the Moon is Illuminated
Dec 1
Waning Gibbous
Dec 6
Last Quarter
Dec 13
New
Dec 19
First Quarter
Dec 28
Full

Hourly Weather History & Observations

Time (PST) Temp. Windchill Dew Point Humidity Pressure Visibility Wind Dir Wind Speed Gust Speed Precip Events Conditions
12:15 AM 37.4 °F 27.8 °F 33.8 °F 87% 29.99 in 4.0 mi SW 17.3 mph 20.7 mph 0.01 in Rain Light Rain
12:35 AM 37.4 °F 28.5 °F 33.8 °F 87% 29.98 in 5.0 mi SW 15.0 mph 26.5 mph 0.02 in Rain Light Rain
12:55 AM 39.2 °F 29.8 °F 35.6 °F 87% 29.99 in 2.5 mi SSW 18.4 mph 28.8 mph 0.03 in   Overcast
1:15 AM 39.2 °F 30.8 °F 35.6 °F 87% 30.00 in 3.0 mi SSW 15.0 mph 33.4 mph 0.01 in   Overcast
1:35 AM 39.2 °F 29.0 °F 33.8 °F 81% 30.01 in 4.0 mi SSW 21.9 mph 33.4 mph N/A Rain Light Rain
1:55 AM 39.2 °F 29.6 °F 33.8 °F 81% 30.01 in 2.0 mi SSW 19.6 mph 28.8 mph 0.03 in   Haze
2:15 AM 39.2 °F 30.8 °F 32.0 °F 75% 30.03 in 10.0 mi SW 15.0 mph 32.2 mph N/A   Mostly Cloudy
2:35 AM 39.2 °F 28.5 °F 32.0 °F 75% 30.01 in 10.0 mi SSW 24.2 mph 33.4 mph N/A   Partly Cloudy
2:55 AM 39.2 °F 28.7 °F 32.0 °F 75% 30.00 in 10.0 mi SSW 23.0 mph 31.1 mph N/A   Clear
3:15 AM 39.2 °F 27.0 °F 32.0 °F 75% 29.98 in 10.0 mi SSW 32.2 mph 39.1 mph N/A   Clear
3:35 AM 39.2 °F 27.6 °F 32.0 °F 75% 29.98 in 10.0 mi SSW 28.8 mph 41.4 mph N/A   Clear
3:55 AM 39.2 °F 28.3 °F 32.0 °F 75% 29.97 in 10.0 mi SSW 25.3 mph 36.8 mph N/A   Clear
4:15 AM 41.0 °F 30.9 °F 32.0 °F 70% 29.98 in 10.0 mi SSW 24.2 mph 29.9 mph N/A   Partly Cloudy
4:35 AM 41.0 °F 31.6 °F 33.8 °F 76% 29.97 in 7.0 mi SSW 20.7 mph 39.1 mph N/A   Mostly Cloudy
4:55 AM 39.2 °F 28.0 °F 32.0 °F 75% 29.97 in 7.0 mi SSW 26.5 mph 40.3 mph N/A   Mostly Cloudy
5:15 AM 39.2 °F 29.0 °F 32.0 °F 75% 29.97 in 10.0 mi SSW 21.9 mph 31.1 mph N/A   Partly Cloudy
5:35 AM 39.2 °F 29.8 °F 32.0 °F 75% 29.98 in 8.0 mi SW 18.4 mph 38.0 mph N/A Rain Light Rain
6:45 AM 37.4 °F 27.2 °F 32.0 °F 81% 29.99 in 4.0 mi SSW 19.6 mph 29.9 mph N/A Rain Light Rain
7:55 AM 41.0 °F 32.5 °F 37.4 °F 87% 29.99 in 3.0 mi SW 17.3 mph 26.5 mph N/A Rain Light Rain
8:50 AM 42.8 °F 32.9 °F 37.4 °F 81% 30.11 in 5.0 mi SSW 26.5 mph 35.7 mph N/A Rain Light Rain
10:50 AM 44.6 °F 37.4 °F 41.0 °F 87% 30.01 in 5.0 mi SW 16.1 mph 34.5 mph N/A   Mostly Cloudy
11:55 AM 46.4 °F 39.0 °F 39.2 °F 76% 30.00 in 9.0 mi SSW 19.6 mph 36.8 mph N/A   Scattered Clouds
12:55 PM 48.2 °F - 37.4 °F 66% 29.97 in 10.0 mi SSW 13.8 mph 26.5 mph N/A   Mostly Cloudy
1:50 PM 48.2 °F - 37.4 °F 66% 29.98 in 10.0 mi SSE 4.6 mph 21.9 mph N/A   Overcast
2:45 PM 46.4 °F 39.2 °F 35.6 °F 66% 29.97 in 10.0 mi SSE 18.4 mph 31.1 mph N/A   Mostly Cloudy
3:50 PM 44.6 °F 38.1 °F 33.8 °F 66% 29.97 in 8.0 mi SSE 13.8 mph 35.7 mph N/A   Mostly Cloudy
4:55 PM 42.8 °F 36.2 °F 32.0 °F 66% 29.96 in 10.0 mi SSE 12.7 mph 25.3 mph N/A   Mostly Cloudy
5:15 PM 44.6 °F 37.2 °F 32.0 °F 61% 29.96 in 10.0 mi SSE 17.3 mph 24.2 mph N/A   Mostly Cloudy
5:35 PM 44.6 °F 37.8 °F 35.6 °F 71% 29.96 in 10.0 mi South 15.0 mph 20.7 mph N/A   Overcast
5:55 PM 42.8 °F 34.0 °F 33.8 °F 70% 29.98 in 10.0 mi SW 20.7 mph 36.8 mph N/A   Overcast
6:15 PM 41.0 °F 34.7 °F 32.0 °F 70% 30.00 in 10.0 mi South 10.4 mph 23.0 mph N/A   Overcast
6:35 PM 41.0 °F 35.2 °F 32.0 °F 70% 30.01 in 10.0 mi SSW 9.2 mph 19.6 mph N/A   Overcast
6:55 PM 41.0 °F 34.3 °F 32.0 °F 70% 29.98 in 10.0 mi SSE 11.5 mph 18.4 mph N/A   Overcast
7:15 PM 41.0 °F 35.2 °F 32.0 °F 70% 29.98 in 10.0 mi SSW 9.2 mph 17.3 mph N/A Rain Light Rain
7:35 PM 39.2 °F 31.2 °F 33.8 °F 81% 29.97 in 6.0 mi SSW 13.8 mph 20.7 mph N/A Rain Light Rain
7:55 PM 39.2 °F 31.2 °F 33.8 °F 81% 29.97 in 7.0 mi South 13.8 mph 20.7 mph 0.01 in Rain Light Rain
8:15 PM 39.2 °F 32.5 °F 33.8 °F 81% 29.96 in 10.0 mi South 10.4 mph 17.3 mph N/A   Overcast
8:35 PM 39.2 °F 33.6 °F 33.8 °F 81% 29.94 in 10.0 mi South 8.1 mph 20.7 mph N/A Rain Light Rain
8:55 PM 39.2 °F 30.8 °F 32.0 °F 75% 29.93 in 9.0 mi South 15.0 mph 20.7 mph N/A   Overcast
9:15 PM 39.2 °F 30.8 °F 32.0 °F 75% 29.92 in 9.0 mi South 15.0 mph 29.9 mph N/A   Overcast
9:35 PM 39.2 °F 30.5 °F 33.8 °F 81% 29.91 in 10.0 mi SSE 16.1 mph 21.9 mph N/A   Overcast
9:55 PM 41.0 °F 33.1 °F 35.6 °F 81% 29.91 in 9.0 mi South 15.0 mph 27.6 mph N/A   Overcast
10:15 PM 41.0 °F 31.9 °F 35.6 °F 81% 29.90 in 9.0 mi SSW 19.6 mph 33.4 mph N/A   Overcast
10:35 PM 41.0 °F 31.9 °F 35.6 °F 81% 29.89 in 10.0 mi SSW 19.6 mph 32.2 mph N/A   Mostly Cloudy
10:55 PM 41.0 °F 31.4 °F 37.4 °F 87% 29.87 in 5.0 mi SW 21.9 mph 39.1 mph 0.02 in   Haze
11:15 PM 41.0 °F 29.7 °F 37.4 °F 87% 29.85 in 5.0 mi SSW 31.1 mph 47.2 mph N/A   Mostly Cloudy
11:35 PM 42.8 °F 32.5 °F 37.4 °F 81% 29.84 in 3.0 mi SW 28.8 mph 41.4 mph 0.04 in   Haze
11:55 PM 44.6 °F 36.1 °F 39.2 °F 81% 29.86 in 5.0 mi SSW 21.9 mph 41.4 mph 0.06 in Rain Light Rain